Track STARLINK-6277 now! 10-day predictions STARLINK-6277 is classified as:
1 56399U 23061AB 24325.98951026 -.00001362 00000-0 -85787-4 0 9993 2 56399 43.0036 238.7861 0001150 258.1231 101.9482 15.02524833 85937